Regional Weather Roundup
Issued by NWS Portland, ME

Home | Current Version | Previous Version | Text Only | Print | Product List | Glossary On
Versions: 1 2 3 4 5 6 7 8 9 10 11 12 13 14 15 16 17 18 19 20 21 22 23 24 25 26 27 28 29 30 31 32 33 34 35 36 37 38 39 40 41 42 43 44 45 46 47 48 49 50
000
ASUS41 KGYX 301010
RWRGYX
WEATHER ROUNDUP FOR MAINE AND NEW HAMPSHIRE
NATIONAL WEATHER SERVICE GRAY ME
600 AM EDT SUN AUG 30 2015

MEZ002-005-006-010-012-015-018-020-021-024-026-027-029-301100-
MAINE

CITY           SKY/WX    TMP DP  RH WIND       PRES   REMARKS
PORTLAND       PTCLDY    61  60  97 CALM      30.03S
SANFORD        CLEAR     55  52  88 SW3       30.04S
BAR HARBOR     CLOUDY    63  63 100 CALM      30.02S
WISCASSET      MOCLDY    60  59  96 CALM      30.03F
ROCKLAND       CLOUDY    63  61  94 W3        30.01S
FRYEBURG       MOCLDY    59  59 100 CALM      30.05S
LEWISTONAUBURN MOCLDY    59 N/A N/A CALM      30.03S
AUGUSTA        CLOUDY    61  60  97 S3        30.03S
WATERVILLE     CLOUDY    61  57  88 CALM      30.00F
BANGOR         CLOUDY    63  59  87 CALM      30.02F
GREENVILLE       N/A     59  56  89 CALM      30.02S
MILLINOCKET    CLOUDY    62  58  86 CALM      30.02R
HOULTON        CLOUDY    61  57  87 SW3       29.97F
PRESQUE ISLE   CLOUDY    61  54  77 SW7       29.95F
FRENCHVILLE    MOCLDY    59  57  93 CALM      29.94S FOG
CARIBOU        CLOUDY    60  57  89 SW6       29.95S
$$

NHZ002-005-008-009-011-012-014-301100-
NEW HAMPSHIRE

CITY           SKY/WX    TMP DP  RH WIND       PRES   REMARKS
PORTSMOUTH     MOCLDY    63  58  84 SW6       30.03S
ROCHESTER      CLEAR     61  57  87 CALM      30.04S
NASHUA         CLEAR     59  58  96 CALM      30.06S
MANCHESTER     MOCLDY    62  56  80 CALM      30.04S
CONCORD        CLEAR     59  57  93 CALM      30.05S
LACONIA        PTCLDY    61  57  88 CALM      30.05R
PLYMOUTH       FAIR      58  57  96 CALM      30.06R
BERLIN         CLOUDY    56  54  93 CALM      30.06F
WHITEFIELD     CLOUDY    58  56  93 CALM      30.07F
JAFFREY        MOCLDY    59  57  93 S5        30.09S
KEENE          CLOUDY    57  52  82 CALM      30.08S VSB 1/4
LEBANON        CLOUDY    59  57  93 CALM      30.06S
MT WASHINGTON  PTCLDY    46  34  61 W24         N/A
$$

VTZ005-007-008-301100-
VERMONT

CITY           SKY/WX    TMP DP  RH WIND       PRES   REMARKS
ST JOHNSBURY     N/A     61  58  90 MISG      30.05S
MONTPELIER     CLOUDY    60  58  92 CALM      30.10F
BURLINGTON     MOCLDY    63  59  87 E3        30.05S
$$

MAZ007-012-024-CTZ003-RIZ002-NYZ038-NYZ072-301100-
SOUTHERN NEW ENGLAND AND NY

CITY           SKY/WX    TMP DP  RH WIND       PRES   REMARKS
BOSTON         MOCLDY    69  62  78 SW10      30.05S
WORCESTER      PTCLDY    62  60  93 W10       30.09S
NANTUCKET      PTCLDY    68  65  90 SW6       30.09S
PROVIDENCE     PTCLDY    67  63  87 SW6       30.08S
HARTFORD       PTCLDY    63  60  90 CALM      30.07R
ALBANY         MOCLDY    62  58  86 CALM      30.08R
NEW YORK CITY  PTCLDY    73  62  68 SW6       30.08S
$$

ANZ081-ANZ082-ANZ150-NHZ014-MEZ023>029-301100-
COASTAL MARINE OBSERVATIONS

STATION/POSITION TIME  TEMP    WIND        PRES    WAVE
                       AIR SEA DIR/SP/G            HT/PER
                 (UTC) (F)     (DEG/KT/KT) (MB)    (FT/S)
MOUNT DESERT ROC 1000   60     270/  7/  8 1016.8R
MATINICUS ROCK   0900   63     270/  8/  9 1016.5F
ISLE OF SHOALS   0900   67     260/  8/  9 1016.7F
JEFFREYS LEDGE   0903      68                N/A     3/ 9
CASHES LEDGE BUO 0950   69                 1016.8F   3/11
GEORGES BANK BUO 0950   69 69     CALM     1018.7F   3/10
$$

.............KEY..............
   WCI - WIND CHILL
   TC  - TEMPERATURE IN CELSIUS
   VSB - VISIBILITY IN MILES
   HX  - HEAT INDEX
   FAIR- INDICATES FEW OR NO CLOUDS BELOW 12,000 FT, WITH NO
         SIGNIFICANT WEATHER AND/OR OBSTRUCTIONS TO VISIBILITY.





USA.gov is the U.S. government's official web portal to all federal, state and local government web resources and services.